Regional Weather Roundup
Issued by NWS

Home | Current Version | Previous Version | Text Only | Print | Product List | Glossary Off
Versions: 1 2 3 4 5 6 7 8 9 10 11 12 13 14 15 16 17 18 19 20 21 22 23 24 25 26 27 28 29 30 31 32 33 34 35 36 37 38 39 40 41 42 43 44 45 46 47 48 49 50

000
ASUS45 KBOU 301807
RWRCO

WEATHER ROUNDUP FOR COLORADO
NATIONAL WEATHER SERVICE DENVER/BOULDER CO
1200 PM MDT SAT MAY 30 2015

NOTE: "FAIR" INDICATES FEW OR NO CLOUDS BELOW 12000 FEET WITH NO
SIGNIFICANT WEATHER AND/OR OBSTRUCTIONS TO VISIBILITY.

COZ001>005-013-030-031-301900-
...NORTHWEST COLORADO...

CITY           SKY/WX    TMP DP  RH WIND       PRES   REMARKS
CRAIG          SUNNY     67  41  38 MISG      30.28F
HAYDEN         SUNNY     63  36  36 NW5       30.30S
MEEKER         SUNNY     67  35  30 VRB3      30.29S
MOUNT WERNER   NOT AVBL
STEAMBOAT SPGS SUNNY     61  33  35 CALM      30.32S
WALDEN         SUNNY     55  32  41 SW8       30.36S
$$

COZ006>008-011-301900-
...WEST CENTRAL VALLEYS...

CITY           SKY/WX    TMP DP  RH WIND       PRES   REMARKS
GRAND JUNCTION SUNNY     72  39  30 SE8       30.21F
MONTROSE       SUNNY     72  35  25 NW5       30.29F
EAGLE          MOSUNNY   70  45  40 CALM      30.33F
RIFLE          SUNNY     68  38  33 VRB5      30.26F
DELTA          SUNNY     74  38  26 SE5       30.25F
NUCLA          SUNNY     72  30  21 NW6       30.31F
$$

COZ017>023-064>068-301900-
...SOUTHWEST COLORADO...

CITY           SKY/WX    TMP DP  RH WIND       PRES   REMARKS
DURANGO        SUNNY     68  34  28 VRB3      30.31F
CORTEZ         SUNNY     75  31  19 SW10      30.27S
PAGOSA SPRINGS SUNNY     64  20  19 S5        30.38S
TELLURIDE      SUNNY     60  17  18 SW8       30.45S
WOLF CREEK PAS NOT AVBL
$$

COZ009-010-012-014-032>034-037-058>063-301900-
...CENTRAL COLORADO...

CITY           SKY/WX    TMP DP  RH WIND       PRES   REMARKS
ASPEN          SUNNY     64  27  24 N13       30.35F
BUENA VISTA    SUNNY     62  29  28 CALM      30.35F
COPPER MTN     MOSUNNY   45  23  42 W17       30.56S
BERTHOUD PASS  FAIR      34  28  80 NW10G20   30.59S WCI  26
COTTONWOOD PAS SUNNY     61  30  31 E8        30.45S
GUNNISON       SUNNY     61  32  33 SW6       30.39F
KREMMLING      SUNNY     61  34  36 SE6       30.36F
LEADVILLE      MOSUNNY   53  21  28 CALM      30.43F
MONARCH PASS   SUNNY     41  27  56 SW13G21   30.67R
SALIDA         SUNNY     67  35  30 NE6       30.39F
SUNLIGHT       MOSUNNY   50  30  46 CALM      30.55S
WILKERSON PASS SUNNY     46  28  49 W6        30.55S
$$

COZ069>075-301900-
...SAN LUIS VALLEY/SANGRE DE CRISTO MOUNTAINS...

CITY           SKY/WX    TMP DP  RH WIND       PRES   REMARKS
ALAMOSA        SUNNY     63  34  33 CALM      30.36F
LA VETA PASS   MOSUNNY  N/A N/A N/A MISG      30.49S
SAGUACHE       SUNNY     61  36  39 SW7       30.38F
$$

COZ035-036-038>040-301900-
...NORTHERN COLORADO FRONT RANGE...

CITY           SKY/WX    TMP DP  RH WIND       PRES   REMARKS
DENVER INTL AP MOSUNNY   65  46  50 E3        30.27F
DMNS CITY PARK   N/A     66  46  48 NW5       30.26S
AURORA         MOSUNNY   65  44  45 SE6       30.28S
FRONT RANGE AP NOT AVBL
ERIE MUNI ARPT SUNNY     64  44  48 CALM      30.26F
BOULDER MUN AP SUNNY     63  46  55 CALM      30.27S
CENTENNIAL     MOSUNNY   63  40  42 E5        30.28F
BROOMFIELD     MOSUNNY   63  46  55 E5        30.28F
FORT COLLINS   SUNNY     63  48  59 SE8       30.28S
LONGMONT       SUNNY     67  48  50 SE3       30.28S
$$

COZ041-046-047-076>085-087-088-301900-
...PIKES PEAK/PALMER DIVIDE AND SOUTHERN FOOTHILLS...

CITY           SKY/WX    TMP DP  RH WIND       PRES   REMARKS
COLO. SPRINGS  MOSUNNY   59  47  64 SE8       30.33S
A. F. ACADEMY  MOSUNNY   58  46  65 S6        30.32F
ELLICOTT       MOSUNNY  N/A N/A N/A SW12      30.32F
FALCON         MOSUNNY   57  45  63 S6        30.36S
FORT CARSON    MOSUNNY   59  50  70 SE6       30.31S
LIMON          MOSUNNY   60  48  64 SE12      30.30S
MONUMENT HILL  SUNNY     61  37  41 W5        30.34R
TRINIDAD       SUNNY     62  50  64 E12       30.30F
$$

COZ042>045-048>051-090-091-301900-
...NORTHEAST COLORADO...

CITY           SKY/WX    TMP DP  RH WIND       PRES   REMARKS
GREELEY ARPT   SUNNY     64  48  55 S6        30.27F
AKRON          CLOUDY    55  47  74 SE8       30.30F
BURLINGTON     CLOUDY    54  45  71 NE5       30.31F
WRAY           MOSUNNY   59  45  59 NE5       30.30F
STERLING       CLOUDY    57  46  67 SE5       30.29S
HOLYOKE        SUNNY     61  45  55 NW5       30.30S
FORT MORGAN    MOSUNNY   60  46  60 E7        30.30S
$$

COZ086-089-092>099-301900-
...SOUTHEAST COLORADO...

CITY           SKY/WX    TMP DP  RH WIND       PRES   REMARKS
PUEBLO         PTSUNNY   61  50  67 VRB6      30.27F
LA JUNTA       PTSUNNY   63  48  58 MISG      30.29F
LAMAR          PTSUNNY   62  47  57 VRB5      30.28F
SPRINGFIELD      N/A     60  47  61 CALM      30.30F
$$


USA.gov is the U.S. government's official web portal to all federal, state and local government web resources and services.